Lapse_Rate
5.5 4.7 4.5 6.5 5.9 5.7 5.6 5.8 6.2 7.1 7.2 7.1 6.9 6.7 6.7 7.6 7.3 7.5 7.4 7.4 7.6 7.5 6.7 6.1 6.0 5.9 6.4 5.8 5.9 5.9 6.0 5.9 5.7 5.7 5.9 6.1 6.2 6.3 6.3 6.5 6.4 6.5 6.2 6.4
5.0 4.8 6.4 5.7 5.6 5.8 5.9 6.1 6.3 7.3 7.2 7.3 7.4 7.1 6.8 7.0 7.5 7.7 7.6 7.7 7.8 7.4 7.0 6.3 6.3 5.9 6.1 6.0 5.9 5.7 6.1 6.0 6.1 5.9 6.1 6.0 6.0 6.2 6.2 6.2 6.1 6.0 6.2 6.2
4.8 5.5 5.9 5.8 5.8 5.6 5.7 6.0 6.5 7.3 7.9 7.6 7.9 7.4 6.7 6.6 6.7 6.9 7.3 7.6 7.9 7.6 7.6 7.0 7.0 6.7 6.6 6.1 6.1 6.2 6.3 6.5 6.3 6.0 5.9 5.9 5.9 6.1 6.2 6.3 6.2 5.9 6.0 6.0
5.1 5.6 5.6 5.8 5.9 5.9 5.7 6.4 6.7 7.1 7.6 7.5 7.8 6.4 6.6 6.8 7.0 6.8 7.3 7.7 7.8 7.5 7.4 6.8 6.8 6.9 7.1 6.5 6.4 6.3 6.4 6.5 6.4 6.0 6.1 6.2 6.0 6.2 6.4 6.4 6.1 6.0 5.9 6.0
4.7 5.4 5.8 5.3 5.9 6.3 6.4 6.5 6.6 7.2 7.4 7.5 7.9 7.7 7.0 7.0 6.7 6.7 7.4 7.5 7.9 8.0 7.7 7.3 7.3 7.3 7.2 6.7 6.1 6.3 6.1 6.0 6.3 6.1 6.0 5.9 6.1 6.2 6.2 6.0 6.1 6.1 6.0 6.1
4.9 5.3 5.9 5.8 6.1 6.3 6.5 6.8 6.9 7.3 7.4 7.1 7.5 7.6 7.0 6.6 6.8 7.5 7.9 7.7 7.8 8.2 8.2 8.0 7.1 6.9 7.1 6.6 6.0 6.1 6.1 6.1 6.1 6.1 5.8 5.9 6.1 6.2 6.1 6.0 6.2 6.2 6.1 6.2
5.1 5.2 5.3 5.7 6.5 6.6 6.7 6.7 6.5 6.0 6.4 6.1 7.2 7.6 6.3 6.5 7.1 7.7 8.2 8.4 8.4 8.2 8.5 8.8 8.0 7.4 7.2 6.7 6.1 6.1 6.0 6.0 6.1 6.1 5.9 5.9 6.2 6.2 5.9 5.9 6.1 6.1 6.1 6.3
4.1 5.1 5.1 6.1 6.2 6.8 6.8 6.8 6.1 4.4 4.6 5.5 6.8 6.3 5.9 6.5 7.3 8.1 8.3 8.4 8.3 7.8 8.4 8.9 8.5 8.0 7.3 6.9 6.7 6.5 6.3 6.2 6.0 6.1 6.0 6.0 6.2 6.2 6.1 6.1 6.1 6.1 6.2 6.1
4.4 4.1 5.6 5.6 6.3 6.9 6.9 6.4 6.9 7.1 7.0 6.5 6.7 6.8 6.5 7.0 7.9 8.2 8.1 8.4 8.5 8.3 8.4 8.8 8.8 8.3 7.8 7.0 6.9 6.6 6.6 6.5 6.3 6.2 6.0 6.1 6.3 6.3 6.4 6.4 6.2 6.2 6.2 6.2
3.7 2.9 5.7 5.7 6.5 7.0 7.3 7.0 7.0 6.6 5.2 5.1 5.7 7.2 6.9 7.4 7.7 8.0 8.5 8.4 9.1 8.9 8.5 8.6 8.7 8.4 7.9 7.3 6.9 6.8 6.7 6.7 6.7 6.4 6.2 6.2 6.3 6.5 6.4 6.3 6.3 6.3 6.3 6.3
5.1 3.0 5.9 5.8 6.7 6.3 7.0 6.8 7.1 7.4 6.9 5.9 4.5 6.5 7.5 8.0 8.2 8.1 8.4 8.3 8.7 9.0 8.8 8.7 9.0 8.8 8.2 7.5 7.1 6.8 6.6 6.6 6.3 6.3 6.3 6.3 6.3 6.3 6.4 6.4 6.3 6.3 6.3 6.3
5.6 3.9 3.5 6.3 6.9 6.8 6.8 7.1 7.4 7.2 6.2 6.7 6.3 5.7 7.5 8.1 8.5 8.5 8.6 8.6 8.7 8.9 9.1 8.8 8.8 9.1 8.0 7.7 7.3 7.1 6.8 6.7 6.7 6.6 6.6 6.7 6.5 6.4 6.5 6.4 6.4 6.4 6.5 6.5
5.1 4.8 3.2 6.7 7.6 7.1 7.1 7.3 7.2 7.0 7.5 6.8 6.2 5.8 7.5 7.9 8.8 8.9 9.0 9.0 9.1 9.4 9.2 9.2 8.9 9.1 8.6 8.0 7.5 7.1 6.8 6.9 6.9 6.6 6.7 6.7 6.6 6.7 6.8 6.6 6.5 6.5 6.6 6.3
4.9 4.6 3.8 4.1 6.1 5.1 6.1 7.1 7.2 7.7 7.3 7.1 6.4 7.0 7.9 8.2 8.6 9.4 9.4 9.5 9.2 8.9 9.1 9.4 9.3 9.3 8.9 8.3 7.7 7.2 6.9 6.6 6.9 7.0 6.8 6.9 7.0 7.2 7.1 6.8 6.6 6.5 6.4 6.3
4.7 4.8 4.7 3.7 4.8 5.2 5.4 5.8 6.5 6.6 7.1 7.1 7.0 7.5 8.0 8.3 8.7 9.0 9.2 9.1 8.8 9.0 9.3 9.3 9.1 9.3 9.2 8.6 7.8 7.5 7.0 6.7 6.5 7.1 7.0 7.2 7.2 7.2 6.9 6.8 6.9 6.6 6.5 6.5
4.6 5.0 4.4 3.4 5.0 5.7 5.9 6.6 6.6 7.0 7.2 7.5 7.4 7.9 8.5 8.5 8.6 8.4 8.5 8.4 9.1 9.2 9.3 9.5 9.1 9.2 9.2 8.8 8.1 8.0 7.5 7.1 6.9 7.1 7.4 7.3 7.2 7.1 7.0 7.1 7.0 6.9 6.8 6.8
4.5 5.0 4.3 4.2 6.3 6.3 6.2 6.3 6.6 8.0 8.3 8.1 7.4 7.9 8.5 8.5 8.3 8.3 8.3 8.7 9.2 9.2 9.5 9.3 9.3 9.1 9.1 8.7 8.6 8.4 8.0 7.6 7.5 7.3 7.2 7.3 7.3 7.3 7.5 7.5 7.3 7.4 7.4 7.3
5.0 5.2 4.2 4.6 6.1 7.0 6.2 6.1 6.4 7.8 6.9 6.8 7.1 8.0 8.5 8.4 8.3 8.1 8.5 9.0 9.3 9.4 9.5 9.6 9.5 9.3 9.5 9.1 8.8 9.0 8.5 8.1 8.0 7.8 7.6 7.5 7.5 7.7 7.9 8.0 8.0 7.9 7.8 7.7
5.4 4.5 4.3 4.6 5.7 6.3 6.8 6.2 6.3 7.2 6.3 6.2 7.1 7.9 7.8 8.3 8.0 8.2 8.8 9.0 9.1 9.1 9.4 9.5 9.5 9.6 9.5 9.2 9.1 9.0 8.9 8.6 8.3 8.2 8.3 8.4 8.5 8.5 8.4 8.3 8.3 8.2 8.0 7.9
5.2 4.6 4.1 4.5 5.3 5.6 6.0 5.9 6.1 6.5 6.1 5.4 6.8 7.8 7.6 7.8 7.7 7.5 8.3 9.1 9.3 9.5 9.5 9.4 9.2 9.3 9.4 9.2 9.2 9.1 9.1 8.3 8.5 8.3 9.0 8.8 8.6 8.6 8.4 8.2 8.1 8.1 8.0 8.1
4.9 4.2 4.2 4.2 4.4 5.1 5.4 6.3 5.9 6.1 4.5 4.4 5.5 6.3 6.6 7.6 7.5 7.1 7.3 8.1 9.0 9.3 9.5 9.2 8.9 8.9 9.0 8.8 9.1 9.1 8.9 8.4 8.6 8.8 8.7 8.6 8.5 8.4 8.3 8.1 7.9 8.0 8.1 8.2
4.9 4.1 3.8 4.3 4.6 4.5 5.0 6.1 6.4 4.6 4.5 4.3 4.2 5.2 5.9 5.3 6.3 6.7 6.9 7.4 7.8 8.5 8.4 8.5 8.5 8.7 9.0 9.2 9.2 9.1 9.1 8.9 8.8 8.5 8.8 8.6 8.6 8.6 8.4 8.3 8.3 8.5 8.6 8.7
4.5 3.9 3.4 3.7 4.1 4.0 3.9 4.0 4.4 4.5 4.4 4.5 4.2 4.2 4.6 4.7 5.1 5.9 6.5 7.0 7.2 7.5 7.4 7.5 7.8 8.1 8.4 8.9 9.2 9.3 9.1 9.0 9.1 9.2 8.7 8.7 8.8 8.7 8.8 9.0 8.9 8.7 8.8 8.9
4.5 4.1 3.8 4.2 4.6 4.6 4.0 3.8 4.5 4.4 3.9 4.3 4.1 4.0 4.5 4.9 5.0 5.4 5.8 6.3 7.1 7.4 7.4 7.3 7.3 7.5 7.5 7.5 7.8 8.1 8.3 8.5 8.7 9.0 9.0 8.9 9.0 9.3 9.0 8.9 8.8 8.7 8.6 8.5
4.7 4.4 3.9 4.3 4.4 4.9 4.9 4.4 4.2 4.6 3.9 4.0 4.1 3.6 4.5 5.0 5.2 5.4 5.6 5.9 6.5 7.2 7.6 8.0 7.9 7.9 7.8 7.6 7.6 7.8 7.9 7.9 8.1 8.3 8.5 8.6 8.6 8.6 8.6 8.7 8.7 8.7 8.5 8.4
4.9 4.1 3.8 3.9 3.6 3.9 5.4 4.9 4.7 3.9 4.4 3.7 3.8 3.6 3.8 4.9 5.2 5.4 5.6 5.7 6.1 6.6 7.2 7.7 7.9 8.3 8.3 8.3 8.4 8.1 7.9 7.7 7.6 7.4 7.5 7.8 8.0 8.0 8.0 8.0 8.0 8.0 8.1 8.1
Wind_Speed
7 5 19 32 16 5 4 4 6 4 8 7 15 7 18 20 16 20 19 20 21 22 20 17 16 17 17 16 14 15 14 12 9 4 5 3 4 2 1 6 10 14 14 13
5 18 18 5 8 10 7 5 6 5 6 10 11 14 15 19 22 22 20 19 22 21 20 21 18 18 17 17 19 15 16 15 11 9 8 3 3 3 3 4 8 14 14 13
10 7 16 10 11 13 14 16 10 8 3 10 8 6 8 13 11 13 18 20 19 22 23 23 21 22 18 16 18 18 18 17 14 15 3 2 3 2 3 2 2 5 14 13
13 21 12 16 16 16 14 16 14 13 5 4 8 5 8 13 18 17 20 21 20 22 20 19 21 21 22 18 17 18 18 16 15 13 11 11 8 8 5 4 3 4 12 12
16 14 17 16 23 19 14 8 10 10 3 5 7 4 7 17 19 22 22 22 22 23 22 24 24 24 24 20 17 17 18 17 17 14 14 10 7 5 2 3 5 4 5 11
11 10 13 25 13 13 5 5 4 1 3 9 13 10 5 12 26 24 23 23 21 21 24 24 24 20 20 21 18 18 18 18 17 15 15 14 13 7 5 4 4 4 4 5
10 16 17 8 16 9 12 8 3 4 6 11 7 10 13 17 24 29 30 28 26 24 21 21 24 24 21 23 20 18 19 19 18 17 16 14 13 11 10 7 7 6 4 3
5 8 12 8 14 11 11 11 6 9 5 6 7 7 6 15 24 27 28 27 17 18 19 20 23 24 23 23 22 22 21 21 19 18 18 15 14 9 8 9 5 5 5 7
5 8 14 20 15 17 11 17 11 5 3 2 6 5 6 7 14 14 21 15 21 22 21 21 19 20 23 23 24 23 22 22 21 20 17 16 13 13 11 10 10 7 6 6
4 7 7 13 9 17 20 9 8 5 8 7 4 5 7 11 15 13 16 20 20 22 20 19 19 21 20 20 23 23 22 24 22 20 17 15 16 15 11 9 10 9 8 8
2 3 9 10 7 23 11 11 5 6 4 11 1 7 7 12 16 13 16 20 23 22 23 21 20 22 20 19 20 22 21 22 19 18 18 16 14 13 12 10 10 10 8 9
2 1 7 11 17 18 11 11 8 11 12 3 3 14 5 10 13 14 16 17 20 23 24 21 22 23 22 20 20 21 21 20 20 19 18 17 14 13 13 12 11 10 12 7
1 1 6 7 2 2 4 13 16 9 4 10 15 11 3 5 5 9 11 11 15 20 23 21 19 22 22 21 20 20 20 20 19 18 18 16 15 14 15 15 13 11 12 9
5 3 7 7 7 9 10 17 9 11 13 6 19 5 10 12 9 8 10 11 16 21 24 21 21 23 22 22 19 19 20 19 19 18 17 16 16 16 15 14 14 14 13 11
2 5 10 16 25 20 19 22 22 11 10 17 14 10 13 11 9 8 8 12 16 25 23 22 23 22 21 19 18 18 18 18 18 17 17 18 16 16 15 15 15 14 13 14
5 3 4 16 23 20 19 18 16 19 13 7 6 13 8 2 3 8 10 10 14 21 22 24 24 24 22 21 21 18 17 18 18 18 19 18 16 16 16 16 15 14 14 14
5 3 2 7 5 4 6 7 12 4 14 4 8 4 11 5 11 12 12 7 14 19 21 24 24 23 22 21 21 20 20 17 18 18 17 16 15 15 16 15 14 14 14 13
5 4 3 5 7 7 10 10 8 22 20 18 12 9 2 11 9 17 16 12 10 4 16 21 20 20 21 19 19 16 14 16 16 17 17 15 15 16 14 14 14 13 12 13
11 2 3 3 4 5 1 7 9 5 19 21 19 15 1 13 16 16 20 15 11 11 9 5 6 8 10 12 12 13 13 14 14 16 17 16 16 16 14 15 15 14 13 12
12 9 4 3 1 4 3 18 19 11 10 21 20 18 14 7 9 5 16 16 16 17 12 10 10 10 9 5 15 15 14 14 16 17 17 15 15 16 16 16 15 14 12 13
4 4 6 8 4 3 8 21 12 7 1 14 16 16 15 12 3 4 10 16 15 14 16 13 16 13 6 3 13 15 14 17 12 8 8 11 15 15 14 13 12 11 12 11
3 2 0 3 2 2 14 9 7 3 2 6 11 15 15 8 7 8 12 14 16 16 17 16 15 14 11 11 11 8 6 2 7 10 13 12 12 10 10 13 11 11 11 12
4 4 3 4 3 3 6 4 6 10 6 7 11 12 14 11 7 8 8 9 10 12 12 11 11 12 12 12 9 12 4 6 6 5 4 5 7 11 12 12 12 10 11 11
7 9 3 7 7 11 13 3 8 12 10 9 8 10 11 13 8 7 7 7 8 9 10 9 11 12 12 10 10 8 7 6 6 7 6 3 5 6 6 6 8 9 9 10
4 8 7 4 7 18 1 12 13 12 13 13 12 9 10 10 11 6 5 6 6 6 7 8 9 9 8 7 9 8 7 6 6 6 5 4 1 4 5 3 2 7 8 8
5 2 1 2 7 7 13 14 13 13 12 12 12 14 11 10 10 6 5 5 4 6 5 7 7 7 7 7 7 8 8 8 6 5 4 3 2 2 3 4 3 4 2 4
Wind_Direction
191 166 202 211 207 174 182 213 196 212 191 145 197 199 189 182 187 179 191 193 199 201 194 192 190 186 185 186 183 190 189 191 178 174 185 182 184 178 200 202 179 190 192 187
143 216 217 204 191 204 231 250 258 293 183 187 196 213 196 188 200 187 191 197 202 202 198 198 194 188 184 184 193 191 194 192 189 194 201 177 168 171 162 192 193 200 195 191
197 238 191 201 200 191 211 222 236 232 111 203 174 234 173 197 207 200 207 207 206 205 203 199 196 195 191 185 190 195 195 194 195 196 152 92 87 50 141 150 206 203 195 190
223 230 198 199 216 195 214 210 222 245 146 199 167 226 209 204 214 211 209 208 204 208 212 208 207 199 194 191 189 190 192 193 194 188 195 198 204 203 201 165 172 199 192 193
221 198 223 206 211 199 227 165 200 234 196 152 234 123 253 197 221 222 218 211 205 208 208 207 206 205 199 187 189 190 189 194 194 191 198 196 200 205 155 145 164 195 199 200
236 292 207 222 217 213 170 188 194 254 146 245 214 209 255 193 220 224 226 220 208 205 207 214 209 207 201 192 186 187 188 195 195 192 196 196 195 169 159 184 181 194 205 205
329 250 257 243 209 213 199 141 226 245 208 235 211 196 219 210 214 217 219 214 212 206 206 203 202 202 198 195 186 187 187 194 194 193 196 197 196 179 183 188 201 181 189 205
13 271 231 237 216 192 208 184 168 195 189 218 202 213 233 205 218 220 226 213 203 219 210 205 202 197 196 196 189 188 188 193 193 191 199 199 195 190 192 194 187 201 197 205
349 267 317 300 254 198 197 208 195 103 350 175 222 249 297 205 237 222 228 194 199 210 209 208 207 198 196 193 192 190 189 192 192 194 197 199 196 196 197 189 199 204 198 207
39 303 284 305 298 241 209 159 189 218 191 225 269 212 205 190 230 213 220 207 202 203 207 206 204 204 196 193 192 189 192 190 192 193 195 197 198 199 197 183 190 195 203 207
159 183 287 334 227 220 211 203 200 159 193 224 235 248 205 195 207 200 219 210 207 201 203 199 199 202 193 190 188 192 193 195 193 191 194 198 199 197 195 189 198 202 196 203
91 295 278 250 277 300 298 216 170 203 215 245 198 244 250 212 197 195 213 213 209 205 204 200 198 197 194 185 187 192 194 194 195 192 193 197 196 194 198 203 198 193 207 191
270 82 305 290 259 320 254 202 210 211 116 209 223 236 234 254 256 207 198 224 213 206 208 203 192 195 193 186 186 190 191 194 194 190 194 196 197 194 197 202 200 198 205 199
134 231 220 269 300 320 300 318 327 205 219 193 232 213 260 271 260 249 249 211 216 202 204 193 186 192 192 188 184 188 191 191 191 190 193 197 201 199 201 203 204 206 202 200
251 236 247 256 265 272 272 275 285 287 220 208 235 223 230 229 240 277 277 259 229 201 192 184 184 187 190 186 185 188 191 189 189 188 192 200 199 201 203 205 205 207 205 211
221 258 281 273 253 238 247 258 257 250 246 210 199 239 222 312 13 346 307 251 209 190 183 184 185 183 183 185 189 186 187 189 186 189 198 199 197 198 202 205 204 202 206 208
214 181 262 266 307 274 221 334 293 140 42 336 209 289 311 59 54 16 341 321 216 189 185 181 184 184 185 187 185 190 189 180 188 193 199 199 197 201 205 204 204 206 206 205
216 141 235 269 297 171 151 30 342 81 48 18 352 294 142 96 89 42 12 5 23 323 192 185 186 187 189 186 189 185 179 185 186 193 196 195 196 202 201 203 207 208 207 208
204 179 269 264 315 102 100 355 340 3 43 19 4 23 16 125 65 24 4 11 26 37 39 56 149 162 168 170 170 174 177 181 183 193 198 197 198 201 194 203 206 207 207 209
195 205 267 309 203 166 267 310 304 230 47 354 356 17 8 40 72 342 341 358 20 42 42 51 74 87 99 138 156 164 173 180 191 196 198 193 196 200 200 204 206 208 208 216
172 211 221 233 251 181 324 320 309 66 324 336 358 360 11 50 65 316 344 10 18 36 40 48 62 67 48 68 166 172 173 192 198 171 176 185 200 202 202 204 206 206 208 215
65 331 275 249 93 98 347 351 75 178 0 343 356 4 358 346 17 24 22 13 15 24 29 33 53 51 37 52 89 92 96 154 171 170 183 192 190 190 196 199 201 205 203 210
62 5 285 44 277 287 14 23 75 55 19 1 350 347 352 347 20 21 14 13 9 16 28 27 40 49 38 36 52 79 53 68 88 118 135 176 190 199 200 197 200 198 202 210
7 20 7 332 9 320 313 307 40 0 347 345 343 333 340 351 340 31 29 18 10 8 21 19 34 41 40 27 36 45 36 37 64 78 85 108 188 196 197 199 204 203 205 212
10 308 308 280 321 322 112 341 342 351 338 348 343 340 334 334 335 337 12 23 20 19 10 19 21 29 25 16 29 24 20 22 31 38 29 32 86 189 192 162 205 213 214 216
332 228 14 273 312 295 283 297 319 331 329 333 331 326 330 318 314 320 344 353 6 15 15 32 26 19 15 16 12 10 8 8 3 2 4 360 347 269 203 173 190 60 348 320